#timestamp,LO_Frequency,Hit,StdDev 
1540760415.3,286046999.5,N
1540760435.2,286047001.7,N
1540760455.0,286047000.2,N
1540760455.9,286047000.2,N
1540760475.7,286046999.7,N
1540760495.6,286046997.2,N
1540760515.4,286046996.6,N
1540760535.3,286046998.3,N
1540760555.1,286046992.2,Y
1540760556.0,286046992.2,P
1540760575.8,286046996.1,N
1540760595.7,286046997.4,N
1540760615.5,286046996.8,N
1540760635.4,286046991.7,Y
1540760655.2,286046997.8,P
1540760675.0,286046996.8,P
1540760675.9,286046996.8,P
1540760695.8,286046996.9,Y
1540760715.6,286046998.3,P
1540760735.4,286046998.7,N
1540760755.3,286046999.3,N
1540760775.1,286046997.7,N
1540760795.9,286046997.0,Y
1540760815.7,286047000.0,P
1540760835.5,286047001.1,N
1540760855.4,286047001.1,N
1540760875.2,286046996.8,N
1540760895.0,286046993.6,Y
1540760895.9,286046993.6,P
1540760915.8,286046995.6,N
1540760935.6,286046995.7,N
1540760955.5,286046994.6,N
1540760975.3,286046993.5,Y
1540760995.1,286046999.0,P
1540761015.9,286047001.9,N
1540761035.7,286047003.6,N
1540761055.5,286047005.8,N
1540761075.4,286047005.3,N
1540761095.2,286047003.0,N
1540761115.1,286047003.9,N
1540761116.0,286047003.9,N
1540761135.8,286047003.6,N
1540761155.6,286047001.3,N
1540761175.5,286047003.4,N
1540761195.3,286047003.2,N
1540761215.1,286047003.0,N
1540761235.9,286047007.6,Y
1540761255.7,286047003.9,P
1540761275.6,286047004.0,P
1540761295.4,286047000.2,N
1540761315.2,286047000.5,N
1540761335.1,286046998.8,N
1540761336.0,286046998.8,N
1540761355.8,286047000.6,N
1540761375.6,286047001.6,N
1540761395.5,286047001.9,N
1540761415.3,286047004.2,N
1540761435.2,286047006.0,Y
1540761455.0,286047002.0,P
1540761455.9,286047002.0,P
1540761475.7,286047004.2,P
1540761495.6,286047002.0,N
1540761515.4,286047002.8,N
1540761535.3,286047000.7,N
1540761555.1,286046998.9,N
1540761556.0,286046998.9,N
1540761575.8,286047000.5,N
1540761595.7,286047002.2,N
1540761615.5,286047002.0,N
1540761635.3,286046999.7,N
1540761655.2,286046998.1,N
1540761675.0,286046998.8,N
1540761675.9,286046998.8,N
1540761695.8,286047000.6,N
1540761715.6,286047002.4,N
1540761735.4,286047002.2,N
1540761755.3,286047000.9,N
1540761775.1,286047000.7,N
1540761795.8,286047001.2,N
1540761815.7,286047000.9,N
1540761835.5,286046999.7,N
1540761855.4,286047001.7,N
1540761875.2,286047000.5,N
1540761895.0,286047001.9,N
1540761895.9,286047001.9,N
1540761915.8,286047001.8,N
1540761935.6,286047005.4,Y
1540761955.4,286047005.4,P
1540761975.3,286047009.1,P
1540761995.1,286047010.9,P
1540762015.9,286047017.2,Y
1540762035.7,286047010.9,P
1540762055.5,286047011.2,P
1540762075.4,286047012.1,P
1540762095.2,286047012.8,Y
1540762115.1,286047008.6,P
1540762116.0,286047008.6,P
1540762135.8,286047010.6,P
1540762155.6,286047013.3,Y
1540762175.5,286047001.2,P
1540762195.3,286046996.7,N
1540762215.1,286046994.9,N
1540762235.9,286046993.5,N
1540762255.7,286046990.5,N
1540762275.6,286046991.0,N
1540762295.4,286046989.7,N
1540762315.2,286046990.6,N
1540762335.1,286046990.5,N
1540762336.0,286046990.5,N
1540762355.8,286046988.9,N
1540762375.6,286046991.2,N
1540762395.5,286046991.2,N
1540762415.3,286046990.5,N
1540762435.2,286046994.6,N
1540762455.9,286046994.3,N
1540762475.7,286046991.7,N
1540762495.6,286046994.2,N
1540762515.4,286046999.1,N
1540762535.3,286046997.7,N
1540762555.1,286046998.9,N
1540762556.0,286046998.9,N
1540762575.8,286047002.2,N
1540762595.7,286047000.4,N
1540762615.5,286046999.3,N
1540762635.3,286046998.6,N
1540762655.2,286047001.1,N
1540762675.0,286047002.1,N
1540762675.9,286047002.1,N
1540762695.8,286047004.3,N
1540762715.6,286047003.1,N
1540762735.4,286047004.4,N
1540762755.3,286047003.6,N
1540762775.1,286047006.5,N
1540762795.8,286047013.8,N
1540762815.7,286047011.5,N
1540762835.5,286047011.3,N
1540762855.3,286047013.0,N
1540762875.2,286047015.1,N
1540762895.0,286047014.8,N
1540762895.9,286047014.8,N
1540762915.8,286047016.9,N
1540762935.6,286047016.5,N
1540762955.4,286047018.5,N
1540762975.3,286047020.3,N
1540762995.1,286047020.8,N
1540763015.8,286047022.4,N
1540763035.7,286047025.2,Y
1540763055.5,286047016.4,P
1540763075.4,286047020.3,P
1540763095.2,286047018.0,P
1540763115.0,286047017.8,Y
1540763115.9,286047017.8,P
1540763135.8,286047004.3,P
1540763155.6,286047003.3,N
1540763175.5,286047003.8,N
1540763195.3,286047005.8,N
1540763215.1,286047007.6,N
1540763235.9,286047008.8,N
1540763255.7,286047006.4,N
1540763275.5,286047010.8,N
1540763295.4,286047008.1,N
1540763315.2,286047010.3,N
1540763335.1,286047011.6,N
1540763336.0,286047011.6,N
1540763355.8,286047011.1,N
1540763375.6,286047011.0,N
1540763395.5,286047014.0,Y
1540763415.3,286047003.3,P
1540763435.2,286047005.6,N
1540763455.9,286047004.6,N
1540763475.7,286047009.1,Y
1540763495.6,286047005.7,P
1540763515.4,286047006.9,P
1540763535.2,286047008.4,P
1540763555.1,286047015.2,Y
1540763556.0,286047015.2,P
1540763575.8,286047005.0,N
1540763595.7,286047005.7,N
1540763615.5,286047006.6,N
1540763635.3,286047005.4,N
1540763655.2,286047004.3,N
1540763675.0,286047002.3,N
1540763675.9,286047002.3,N
1540763695.8,286047000.3,N
1540763715.6,286046999.3,N
1540763735.4,286047001.2,N
1540763755.3,286046998.2,N
1540763775.1,286047001.2,N
1540763795.9,286047001.8,N
1540763815.7,286047004.4,N
1540763835.5,286047005.9,N
1540763855.4,286047006.9,N
1540763875.2,286047004.9,N
1540763895.0,286047004.5,N
1540763895.9,286047004.5,N
1540763915.8,286047004.8,N
1540763935.6,286047005.4,N
1540763955.5,286047007.2,N
1540763975.3,286047007.2,N
1540763995.1,286047005.9,N
